Weather History for Millinocket, ME

Change the Weather History Date:

Wednesday, December 25, 2013

  Actual Average Record
Temperature  
Mean Temperature 6 °F 19 °F  
Max Temperature 15 °F 28 °F 51 °F (2003)
Min Temperature -4 °F 10 °F -24 °F (1914)
Degree Days  
Heating Degree Days 59 46  
Month to date heating degree days 1155 1038  
Since 1 July heating degree days 2847 2881  
Cooling Degree Days 0 0  
Month to date cooling degree days 0 0  
Year to date cooling degree days 380 268  
Moisture  
Dew Point 0 °F    
Average Humidity 74    
Maximum Humidity 88    
Minimum Humidity 59    
Precipitation  
Precipitation T in 0.10 in 1.97 in (1910)
Month to date precipitation 1.76 3.08  
Year to date precipitation 37.47 42.23  
Sea Level Pressure  
Sea Level Pressure 30.42 in    
Wind  
Wind Speed 6 mph (WNW)    
Max Wind Speed 15 mph    
Max Gust Speed 21 mph    
Visibility 9 miles    
Events Snow    
T = Trace of Precipitation, MM = Missing Value Source: NWS Daily Summary

Daily Weather History Graph

Daily Weather History Graph

Search for Another Location

Airport:

Trip Planner

Search our weather history database for the weather conditions in past years. The results will help you decide how hot, cold, wet, or windy it might be!

Date:

Astronomy

Dec. 25, 2013 Rise Set
Actual Time 7:14 AM EST 3:55 PM EST
Civil Twilight 6:39 AM EST 4:30 PM EST
Nautical Twilight 6:02 AM EST 5:08 PM EST
Astronomical Twilight 5:25 AM EST 5:44 PM EST
Moon No Moon Rise 11:13 AM EST (12/25)
Length of Visible Light 9h 50m
Length of Day
8h 41m
Waning Gibbous, 49% of the Moon is Illuminated
Dec 25
Waning Gibbous
Jan 1
New
Jan 7
First Quarter
Jan 15
Full
Jan 24
Last Quarter

Hourly Weather History & Observations

Time (EST) Temp. Windchill Dew Point Humidity Pressure Visibility Wind Dir Wind Speed Gust Speed Precip Events Conditions
12:53 AM 10.0 °F -0.9 °F 1.9 °F 70% 30.14 in 10.0 mi WNW 6.9 mph 17.3 mph N/A   Overcast
1:53 AM 9.0 °F -4.2 °F 1.9 °F 73% 30.16 in 4.0 mi WNW 9.2 mph 20.7 mph 0.00 in Snow Light Snow
2:53 AM 9.0 °F -5.9 °F 3.0 °F 77% 30.18 in 4.0 mi WNW 11.5 mph - 0.00 in Snow Light Snow
3:53 AM 9.0 °F -4.2 °F 1.9 °F 73% 30.20 in 5.0 mi WNW 9.2 mph - 0.00 in Snow Light Snow
4:53 AM 9.0 °F -4.2 °F 1.9 °F 73% 30.24 in 6.0 mi WNW 9.2 mph - 0.00 in   Haze
5:53 AM 8.1 °F -5.3 °F 1.0 °F 73% 30.29 in 10.0 mi WNW 9.2 mph - N/A   Overcast
6:53 AM 7.0 °F -5.7 °F -0.0 °F 73% 30.33 in 10.0 mi WNW 8.1 mph - N/A   Overcast
7:53 AM 5.0 °F -8.1 °F -2.0 °F 73% 30.38 in 10.0 mi WNW 8.1 mph - N/A   Clear
8:53 AM 7.0 °F -6.6 °F -0.9 °F 70% 30.42 in 10.0 mi WNW 9.2 mph - N/A   Clear
9:53 AM 9.0 °F -0.9 °F -0.0 °F 67% 30.44 in 10.0 mi NW 5.8 mph - N/A   Clear
10:53 AM 10.9 °F 1.4 °F 1.9 °F 67% 30.45 in 10.0 mi WNW 5.8 mph - N/A   Clear
11:53 AM 12.0 °F 0.5 °F 3.0 °F 67% 30.45 in 10.0 mi WNW 8.1 mph - N/A   Clear
12:53 PM 14.0 °F 6.5 °F 3.9 °F 64% 30.46 in 10.0 mi WNW 4.6 mph - N/A   Clear
1:53 PM 15.1 °F 6.4 °F 3.0 °F 59% 30.47 in 10.0 mi NW 5.8 mph - N/A   Clear
2:53 PM 14.0 °F 6.5 °F 3.9 °F 64% 30.48 in 10.0 mi WNW 4.6 mph - N/A   Clear
3:53 PM 12.0 °F 5.9 °F 3.9 °F 70% 30.49 in 10.0 mi West 3.5 mph - N/A   Clear
4:53 PM 7.0 °F - 3.0 °F 84% 30.52 in 10.0 mi Calm Calm - N/A   Clear
5:53 PM 7.0 °F 0.1 °F 1.9 °F 80% 30.54 in 10.0 mi West 3.5 mph - N/A   Clear
6:53 PM 6.1 °F -0.9 °F 1.0 °F 80% 30.56 in 10.0 mi WNW 3.5 mph - N/A   Clear
7:53 PM 7.0 °F -1.7 °F -0.0 °F 73% 30.57 in 10.0 mi West 4.6 mph - N/A   Clear
8:53 PM 3.9 °F -3.4 °F -0.9 °F 80% 30.56 in 10.0 mi NW 3.5 mph - N/A   Clear
9:53 PM -2.9 °F - -7.1 °F 82% 30.56 in 10.0 mi Calm Calm - N/A   Unknown
10:53 PM -2.0 °F - -7.1 °F 79% 30.56 in 10.0 mi Calm Calm - N/A   Unknown
11:53 PM -4.0 °F - -8.0 °F 83% 30.55 in 8.0 mi Calm Calm - N/A   Unknown